Location: Haliburton Scout Reserve
(45.0900°N, 78.3200°W)
Time: 03:05:28
(UTC-04:00)

IDEFIX/ARIANE 42P - Visible Passes

Search period start: 19 April 2014 00:00
Search period end: 29 April 2014 00:00
Orbit: 785 x 804 km, 98.3° (Epoch: 18 April)

Date Brightness Start Highest point End Pass type
(mag) Time Alt. Az. Time Alt. Az. Time Alt. Az.
19 Apr 2.6 21:03:16 10° SSE 21:08:27 90° ENE 21:13:39 10° NNW visible
19 Apr 5.2 22:46:54 10° WSW 22:48:47 12° W 22:50:39 10° WNW visible
20 Apr 2.8 20:35:26 10° SE 20:40:26 52° ENE 20:45:27 10° N visible
20 Apr 4.7 22:16:26 10° SW 22:20:21 22° W 22:24:17 10° NW visible
21 Apr 3.9 21:47:16 10° SSW 21:52:02 37° W 21:56:51 10° NNW visible
22 Apr 2.9 21:18:43 10° S 21:23:51 67° WSW 21:29:01 10° NNW visible
23 Apr 2.6 20:50:38 10° SSE 20:55:46 71° ENE 21:00:57 10° N visible
23 Apr 5.1 22:32:54 10° SW 22:35:56 16° W 22:38:58 10° NW visible
24 Apr 4.4 22:03:11 10° SSW 22:07:33 27° W 22:11:57 10° NW visible
25 Apr 3.5 21:34:19 10° S 21:39:17 48° W 21:44:19 10° NNW visible
26 Apr 2.6 21:05:58 10° SSE 21:11:09 85° WSW 21:16:22 10° NNW visible
26 Apr 5.3 22:50:16 10° W 22:51:32 11° W 22:52:49 10° WNW visible
27 Apr 2.8 20:38:05 10° SSE 20:43:07 56° ENE 20:48:11 10° N visible
27 Apr 4.8 22:19:21 10° SW 22:23:05 20° W 22:26:51 10° NW visible
28 Apr 4.0 21:50:04 10° SSW 21:54:45 35° W 21:59:29 10° NNW visible
